Regional Weather Roundup
Issued by NWS

Home | Current Version | Previous Version | Text Only | Print | Product List | Glossary Off
Versions: 1 2 3 4 5 6 7 8 9 10 11 12 13 14 15 16 17 18 19 20 21 22 23 24 25 26 27 28 29 30 31 32 33 34 35 36 37 38 39 40 41 42 43 44 45 46 47 48 49 50

000
ASUS43 KLOT 211004
RWRIL

ILLINOIS REGIONAL WEATHER ROUNDUP
NATIONAL WEATHER SERVICE CHICAGO/ROMEOVILLE IL
500 AM CDT SAT OCT 21 2017

NOTE: "FAIR" INDICATES FEW OR NO CLOUDS BELOW 12,000 FEET WITH NO
SIGNIFICANT WEATHER AND/OR OBSTRUCTIONS TO VISIBILITY.

* THESE STATIONS ARE NOT UNDER NWS QUALITY CONTROL. THEY ALSO MAY NOT
  REPORT WEATHER SUCH AS PRECIPITATION OR FOG.

ILZ001-002-007-009-015-016-024-211100-
NORTHWEST ILLINOIS

CITY           SKY/WX    TMP DP  RH WIND       PRES   REMARKS
MOLINE         CLOUDY    64  49  57 S17       29.94F
STERLING*      MOCLDY    62  51  67 VRB6        N/A
SAVANNA*       MOCLDY    60  51  71 S8        29.96S
$$

ILZ003-004-008-010-011-017-018-211100-
NORTH CENTRAL ILLINOIS

CITY           SKY/WX    TMP DP  RH WIND       PRES   REMARKS
ROCKFORD       CLOUDY    59  50  72 S10       30.01F
FREEPORT*      PTCLDY    58  49  72 S9        29.99F
ROCHELLE*      CLOUDY    60  51  72 S7        30.01F
DE KALB*       CLOUDY    57  50  77 SE10      30.04S
PERU*          CLOUDY    58  49  71 S10       30.02F
$$

ILZ005-006-012>014-019>023-211100-
NORTHEAST ILLINOIS

CITY           SKY/WX    TMP DP  RH WIND       PRES   REMARKS
CHICAGO-OHARE  CLOUDY    63  48  58 S9        30.05S
CHICAGO-MIDWAY CLOUDY    63  50  62 S9        30.07R
AURORA         MOCLDY    57  49  74 SE6       30.05S
LANSING*       CLOUDY    59  51  75 S8        30.09R
JOLIET*        CLOUDY    61  51  69 S6        30.07S
WAUKEGAN       CLOUDY    63  49  60 S13       30.03S
DUPAGE AIRPORT PTCLDY    59  49  69 S9        30.05S
KANKAKEE*      CLOUDY    59  49  68 S5        30.09F
WHEELING       MOCLDY    64  50  60 S12       30.06S
MORRIS*        CLOUDY    57  49  73 S3        30.05S
ROMEOVILLE*    CLOUDY    57  50  78 S6        30.07S
NORTHERLY ISL    N/A     63  47  55 S12         N/A
$$

LMZ740>746-211100-
SOUTHERN LAKE MICHIGAN

STATION/POSITION SKY/WX   TEMP    WIND        PRES    VSBY  WAVE
                          AIR SEA DIR/SP/G                  HT/PER
                          (F)     (DEG/KT/KT) (MB)    (MI)  (FT/S)
SOUTHERN BUOY              62 61  170/ 16/ 17 1017.6          3/ 4
WILMETTE HARBOR            63 60  200/ 12/ 14   N/A           2/ 3
HARRISON CRIB              65     190/ 18/ 21   N/A
BURNHAM HARBOR             63     180/ 12/ 13   N/A
CALUMET HARBOR             63     180/  8/ 11 1017.5S
BURNS HARBOR               62     180/ 13/ 17 1019.0R
MICHIGAN CITY              61     170/ 11/ 13   N/A
MICHIGAN CITY 6N           60 58  190/ 10/ 12   N/A           1
ST. JOSEPH                 60 59  190/ 10/ 12 1019.5R         1/ 3
$$

ILZ025>027-034>036-040-047-049-050-058-095>099-211100-
WEST-CENTRAL ILLINOIS

CITY           SKY/WX    TMP DP  RH WIND       PRES   REMARKS
QUINCY         CLOUDY    63  50  62 S13       29.97S
GALESBURG*     CLOUDY    66  60  79 SE13      29.99S
MACOMB*        CLOUDY    61  52  71 S14       30.00S
JACKSONVILLE*  CLOUDY    63  51  66 S9        30.02S
PITTSFIELD*    CLOUDY    63  52  68 SE7       30.01S
$$

ILZ028>032-037-038-041>044-048-051>054-059>061-211100-
CENTRAL ILLINOIS

CITY           SKY/WX    TMP DP  RH WIND       PRES   REMARKS
PONTIAC        CLOUDY    60  52  73 S12       30.07R
BLOOMINGTON    CLOUDY    57  50  77 SE12      30.07S
DECATUR        CLOUDY    57  49  74 S9        30.08S
PEORIA         CLOUDY    61  51  70 S12       30.02F
LACON*         CLOUDY    61  50  68 S10G16    30.01F
LINCOLN*       CLOUDY    61  52  71 S5        30.06R
SPRINGFIELD    MOCLDY    63  52  67 S9G18     30.04S
TAYLORVILLE    MOCLDY    57  49  74 S7        30.08R
$$

ILZ033-039-045-046-055>057-062-063-211100-
EAST-CENTRAL ILLINOIS

CITY           SKY/WX    TMP DP  RH WIND       PRES   REMARKS
CHAMPAIGN      CLOUDY    54  47  77 SE5       30.11R
DANVILLE*      CLOUDY    54  48  82 SE3       30.10S
RANTOUL*       CLOUDY    55  51  87 S3        30.11R
MATTOON        CLOUDY    56  50  80 SE6       30.10R
PARIS*         CLOUDY    51  48  87 SE6       30.14R
$$

ILZ079-100>102-211100-
SOUTHWEST ILLINOIS

CITY           SKY/WX    TMP DP  RH WIND       PRES   REMARKS
ALTON          CLOUDY    57  53  87 CALM      30.06S
BELLEVILLE     CLEAR     58  51  77 E7        30.09S
CAHOKIA*       CLOUDY    63  51  65 SE8       30.05S
SPARTA*        CLOUDY    61  50  66 S6        30.08S
$$

ILZ064>066-069>071-074>076-080>082-084>086-088>090-092>094-211100-
SOUTH-CENTRAL ILLINOIS

CITY           SKY/WX    TMP DP  RH WIND       PRES   REMARKS
CARBONDALE     CLOUDY    58  51  78 S7        30.09S
CAIRO*         CLOUDY    61  52  72 S6        30.10S
EFFINGHAM*     CLOUDY    55  51  86 SE5       30.12S
MARION         MOCLDY    60  49  67 S6        30.11R
MT. VERNON     CLOUDY    58  49  72 CALM      30.11R
CENTRALIA*     PTCLDY    58  51  78 SE7       30.09R
SALEM*         CLOUDY    60  48  65 SE3       30.10R
METROPOLIS*    CLOUDY    56  50  82 CALM      30.12S
$$

ILZ067-068-072-073-078-083-087-091-211100-
SOUTHEAST ILLINOIS

CITY           SKY/WX    TMP DP  RH WIND       PRES   REMARKS
LAWRENCEVILLE  CLOUDY    53  49  86 CALM      30.14R
FLORA*         CLOUDY    55  49  80 CALM      30.12R
FAIRFIELD*     CLOUDY    57  48  73 CALM      30.11R
HARRISBURG*    CLOUDY    57  49  74 S3        30.12R
ROBINSON*      PTCLDY    48  46  94 CALM      30.14R
CARMI*         CLOUDY    51  47  87 CALM      30.13R
$$

ABBREVIATIONS USED IN REMARKS
   TC - TEMPERATURE IN CELSIUS
  WCI - WIND CHILL INDEX
   HX - HEAT INDEX
  VSB - VISIBILITY
$$





USA.gov is the U.S. government's official web portal to all federal, state and local government web resources and services.